• In Romania
  • List of Countries
  • For 7 days
  • Water Temperature
  • Satellite Maps
  • Weather Map
  • Weather Widgets
  • user-avatar
    Login

    Hourly Weather Makarovskoe

    Today, 16 July, Monday

    Time Temperature Precipitation Wind Pressure Humidity
    00:00 +19°C° 0 mm 1 mps 745 mmHg 88%
    01:00 +19°C° 0 mm 1 mps 745 mmHg 89%
    02:00 +18°C° 0 mm 1 mps 745 mmHg 91%
    03:00 +19°C° 0 mm 1 mps 745 mmHg 90%
    04:00 +19°C° 0 mm 1 mps 745 mmHg 88%
    05:00 +20°C° 0 mm 1 mps 745 mmHg 87%
    06:00 +21°C° 0 mm 2 mps 745 mmHg 79%
    07:00 +24°C° 0 mm 2 mps 746 mmHg 71%
    08:00 +25°C° 0 mm 2 mps 746 mmHg 63%
    09:00 +27°C° 0 mm 2 mps 746 mmHg 56%
    10:00 +28°C° 0 mm 3 mps 746 mmHg 49%
    11:00 +29°C° 0 mm 3 mps 745 mmHg 41%
    12:00 +30°C° 0 mm 4 mps 745 mmHg 41%
    13:00 +30°C° 0 mm 4 mps 745 mmHg 40%
    14:00 +30°C° 0 mm 4 mps 745 mmHg 40%
    15:00 +30°C° 0 mm 3 mps 745 mmHg 43%
    16:00 +29°C° 0 mm 3 mps 745 mmHg 47%
    17:00 +29°C° 0 mm 3 mps 744 mmHg 51%
    18:00 +27°C° 0 mm 2 mps 745 mmHg 58%
    19:00 +25°C° 0 mm 2 mps 745 mmHg 66%
    20:00 +23°C° 0 mm 2 mps 745 mmHg 73%
    21:00 +21°C° 0 mm 2 mps 745 mmHg 75%
    22:00 +20°C° 0 mm 2 mps 745 mmHg 78%
    23:00 +20°C° 0 mm 2 mps 745 mmHg 80%

    Tomorrow, 17 July, Tuesday

    Time Temperature Precipitation Wind Pressure Humidity
    00:00 +19°C° 0 mm 2 mps 745 mmHg 82%
    01:00 +19°C° 0 mm 2 mps 745 mmHg 84%
    02:00 +18°C° 0 mm 2 mps 745 mmHg 86%
    03:00 +19°C° 0 mm 3 mps 745 mmHg 83%
    04:00 +19°C° 0 mm 3 mps 745 mmHg 81%
    05:00 +20°C° 0 mm 3 mps 745 mmHg 78%
    06:00 +22°C° 0 mm 4 mps 745 mmHg 71%
    07:00 +23°C° 0 mm 4 mps 745 mmHg 65%
    08:00 +26°C° 0 mm 5 mps 745 mmHg 58%
    09:00 +27°C° 0 mm 5 mps 745 mmHg 54%
    10:00 +28°C° 0 mm 5 mps 744 mmHg 50%
    11:00 +29°C° 0 mm 6 mps 744 mmHg 46%
    12:00 +30°C° 0 mm 6 mps 744 mmHg 45%
    13:00 +30°C° 0 mm 6 mps 743 mmHg 44%
    14:00 +30°C° 0 mm 6 mps 743 mmHg 44%
    15:00 +30°C° 0 mm 5 mps 743 mmHg 47%
    16:00 +29°C° 0 mm 5 mps 743 mmHg 50%
    17:00 +29°C° 0 mm 5 mps 743 mmHg 53%
    18:00 +27°C° 0 mm 4 mps 743 mmHg 58%
    19:00 +26°C° 0 mm 4 mps 743 mmHg 64%
    20:00 +24°C° 0 mm 3 mps 743 mmHg 69%
    21:00 +23°C° 0 mm 4 mps 743 mmHg 72%
    22:00 +22°C° 0 mm 4 mps 743 mmHg 75%
    23:00 +22°C° 0 mm 4 mps 743 mmHg 77%

    Day after tomorrow, 18 July, Wednesday

    Time Temperature Precipitation Wind Pressure Humidity
    00:00 +21°C° 0 mm 4 mps 743 mmHg 79%
    01:00 +21°C° 0 mm 4 mps 743 mmHg 81%
    02:00 +20°C° 0 mm 4 mps 743 mmHg 83%
    03:00 +20°C° 0 mm 4 mps 743 mmHg 82%
    04:00 +20°C° 0 mm 4 mps 743 mmHg 81%
    05:00 +20°C° 0 mm 4 mps 743 mmHg 80%
    06:00 +22°C° 0 mm 4 mps 743 mmHg 75%
    07:00 +23°C° 0 mm 5 mps 743 mmHg 70%
    08:00 +25°C° 0 mm 5 mps 743 mmHg 65%
    09:00 +26°C° 0 mm 5 mps 743 mmHg 60%
    10:00 +27°C° 0 mm 5 mps 743 mmHg 55%
    11:00 +29°C° 0 mm 6 mps 743 mmHg 50%
    12:00 +29°C° 0 mm 6 mps 743 mmHg 49%
    13:00 +30°C° 0 mm 6 mps 743 mmHg 47%
    14:00 +30°C° 0 mm 6 mps 742 mmHg 46%
    15:00 +29°C° 0.1 mm 5 mps 742 mmHg 51%
    16:00 +28°C° 0.1 mm 5 mps 742 mmHg 57%
    17:00 +27°C° 0.1 mm 4 mps 743 mmHg 62%
    18:00 +25°C° 0.1 mm 4 mps 743 mmHg 68%
    19:00 +23°C° 0.1 mm 4 mps 743 mmHg 74%
    20:00 +21°C° 0.1 mm 3 mps 743 mmHg 80%
    21:00 +21°C° 0 mm 3 mps 743 mmHg 81%
    22:00 +20°C° 0 mm 3 mps 743 mmHg 83%
    23:00 +19°C° 0 mm 3 mps 743 mmHg 85%

    19 July, Thursday

    Time Temperature Precipitation Wind Pressure Humidity
    00:00 +19°C° 0.1 mm 3 mps 743 mmHg 85%
    01:00 +19°C° 0.1 mm 3 mps 743 mmHg 85%
    02:00 +18°C° 0.1 mm 3 mps 742 mmHg 85%
    03:00 +18°C° 1.1 mm 4 mps 742 mmHg 88%
    04:00 +18°C° 1.1 mm 4 mps 743 mmHg 91%
    05:00 +18°C° 1.1 mm 4 mps 743 mmHg 94%
    06:00 +18°C° 0.6 mm 4 mps 743 mmHg 95%
    07:00 +18°C° 0.6 mm 4 mps 743 mmHg 95%
    08:00 +18°C° 0.6 mm 4 mps 743 mmHg 95%
    09:00 +19°C° 0.1 mm 4 mps 743 mmHg 94%
    10:00 +19°C° 0.1 mm 3 mps 743 mmHg 93%
    11:00 +20°C° 0.1 mm 3 mps 743 mmHg 92%
    12:00 +21°C° 0 mm 3 mps 743 mmHg 88%
    13:00 +22°C° 0 mm 3 mps 743 mmHg 84%
    14:00 +22°C° 0 mm 3 mps 743 mmHg 81%
    15:00 +24°C° 0 mm 3 mps 743 mmHg 79%
    16:00 +24°C° 0 mm 3 mps 743 mmHg 78%
    17:00 +25°C° 0 mm 3 mps 743 mmHg 76%
    18:00 +24°C° 0 mm 3 mps 743 mmHg 81%
    19:00 +23°C° 0 mm 2 mps 743 mmHg 86%
    20:00 +21°C° 0 mm 2 mps 743 mmHg 91%
    21:00 +20°C° 0.1 mm 2 mps 743 mmHg 93%
    22:00 +20°C° 0.1 mm 2 mps 743 mmHg 95%
    23:00 +19°C° 0.1 mm 2 mps 743 mmHg 98%

    20 July, Friday

    Time Temperature Precipitation Wind Pressure Humidity
    00:00 +19°C° 0 mm 2 mps 743 mmHg 98%
    01:00 +19°C° 0 mm 2 mps 743 mmHg 98%
    02:00 +18°C° 0 mm 2 mps 743 mmHg 98%
    03:00 +19°C° 0 mm 2 mps 743 mmHg 98%
    04:00 +19°C° 0 mm 2 mps 743 mmHg 97%
    05:00 +19°C° 0 mm 2 mps 743 mmHg 96%
    06:00 +20°C° 0.1 mm 2 mps 743 mmHg 91%
    07:00 +23°C° 0.1 mm 2 mps 744 mmHg 87%
    08:00 +24°C° 0.1 mm 2 mps 744 mmHg 82%
    09:00 +24°C° 0.7 mm 3 mps 744 mmHg 81%
    10:00 +25°C° 0.7 mm 3 mps 744 mmHg 80%
    11:00 +26°C° 0.7 mm 3 mps 744 mmHg 79%
    12:00 +26°C° 0.5 mm 3 mps 743 mmHg 75%
    13:00 +27°C° 0.5 mm 3 mps 743 mmHg 71%
    14:00 +28°C° 0.5 mm 3 mps 743 mmHg 66%
    15:00 +28°C° 0.3 mm 3 mps 743 mmHg 68%
    16:00 +27°C° 0.3 mm 3 mps 743 mmHg 70%
    17:00 +27°C° 0.3 mm 3 mps 743 mmHg 71%
    18:00 +26°C° 0.1 mm 2 mps 743 mmHg 77%
    19:00 +24°C° 0.1 mm 2 mps 743 mmHg 83%
    20:00 +23°C° 0.1 mm 2 mps 742 mmHg 89%
    21:00 +21°C° 0.1 mm 2 mps 742 mmHg 91%
    22:00 +21°C° 0.1 mm 2 mps 742 mmHg 94%
    23:00 +20°C° 0.1 mm 2 mps 742 mmHg 96%

    21 July, Saturday

    Time Temperature Precipitation Wind Pressure Humidity
    00:00 +20°C° 0.4 mm 2 mps 742 mmHg 96%
    01:00 +20°C° 0.4 mm 2 mps 742 mmHg 97%
    02:00 +20°C° 0.4 mm 2 mps 742 mmHg 97%
    03:00 +20°C° 0.1 mm 2 mps 742 mmHg 97%
    04:00 +20°C° 0.1 mm 2 mps 742 mmHg 96%
    05:00 +21°C° 0.1 mm 3 mps 743 mmHg 96%
    06:00 +22°C° 0.2 mm 3 mps 743 mmHg 93%
    07:00 +24°C° 0.2 mm 3 mps 743 mmHg 90%
    08:00 +25°C° 0.2 mm 3 mps 743 mmHg 88%
    09:00 +26°C° 1 mm 3 mps 743 mmHg 83%
    10:00 +27°C° 1 mm 3 mps 743 mmHg 79%
    11:00 +28°C° 1 mm 3 mps 743 mmHg 74%
    12:00 +29°C° 0.2 mm 3 mps 743 mmHg 70%
    13:00 +30°C° 0.2 mm 3 mps 743 mmHg 67%
    14:00 +30°C° 0.2 mm 3 mps 743 mmHg 63%
    15:00 +30°C° 0.2 mm 3 mps 743 mmHg 65%
    16:00 +29°C° 0.2 mm 3 mps 743 mmHg 67%
    17:00 +29°C° 0.2 mm 3 mps 743 mmHg 70%
    18:00 +28°C° 0.1 mm 3 mps 743 mmHg 76%
    19:00 +26°C° 0.1 mm 2 mps 743 mmHg 82%
    20:00 +25°C° 0.1 mm 2 mps 743 mmHg 88%
    21:00 +24°C° 1.4 mm 2 mps 743 mmHg 90%
    22:00 +23°C° 1.4 mm 2 mps 743 mmHg 92%
    23:00 +21°C° 1.4 mm 2 mps 743 mmHg 95%
    Show more